Location: Guadanolo
(41.9167°N, 12.9333°E)
Time: 20:14:50
(UTC+00:00)

Nadezhda 1 Rocket - Pass Details

Date: 16 September 2019
Orbit: 942 x 1005 km, 83.0° (Epoch: 12 October)

Event Time Altitude Azimuth Distance (km) Brightness Sun altitude
Rises 18:38:07 0° 188° (S) 3,600 6.9 -15.7°
Reaches altitude 10° 18:40:36 10° 190° (S) 2,655 6.2 -16.1°
Maximum altitude 18:46:40 81° 277° (W) 959 4.0 -17.2°
Drops below altitude 10° 18:52:46 10° 6° (N) 2,670 6.5 -18.2°
Sets 18:55:16 0° 7° (N) 3,623 7.2 -18.7°
